Flag for Egypt Weather past 2 weeks in Alexandria, Egypt

Now
81 °F

Passing clouds.


Feels Like: 83 °F
Forecast: 75 / 82 °F
Wind: 12 mph from Northwest

Location: Alexandria / Nouzha

Current Time: Jul 4, 2015 at 5:58:24 PM

Latest Report: Jul 4, 2015 at 5:00 PM


Visibility: N/A

Pressure: 29.89 "Hg

Humidity: 62%

Dew point: 66 °F

Location of AlexandriaLocation

Historic Weather in Alexandria — Graph

°F

Alexandria temperature yesterday

Maximum temperature yesterday: 84 °F (at 12:00 PM)
Minimum temperature yesterday: 75 °F (at 12:00 AM)
Average temperature yesterday: 78 °F

Past Weeks' High & Low Weather Summary

 TemperatureHumidityPressure
High97 °F (Jun 27, 11:00 AM)100% (Jun 26, 11:00 PM)30.01 "Hg (Jun 26, 11:00 PM)
Low36 °F (Jun 26, 11:00 PM)22% (Jun 27, 11:00 AM)29.59 "Hg (Jun 27, 11:00 AM)
Average78 °F63%29.87 "Hg
* Reported Jun 19 4:00 PM — Jul 4 4:00 PM, Alexandria, Weather by CustomWeather, © 2015

Note: Actual official high and low records may vary slightly from our data, if they occured in-between our weather recording intervals... More about our weather records

Advertising

Alexandria weather history for previous 24 hours

 ConditionsComfort  
Time TempWeatherWind HumidityBarometerVisibility
4:00 PM
Sat, Jul 4
82 °FPassing clouds.12 mph58%29.89 "HgN/A
3:00 PM84 °FPassing clouds.7 mph58%29.86 "HgN/A
2:00 PM84 °FPassing clouds.8 mph58%29.89 "HgN/A
1:00 PM84 °FPassing clouds.15 mph58%29.92 "HgN/A
12:00 PM84 °FPassing clouds.12 mph55%29.92 "HgN/A
11:00 AM82 °FScattered clouds.7 mph58%29.92 "HgN/A
10:00 AM82 °FScattered clouds.7 mph58%29.89 "HgN/A
9:00 AM81 °FScattered clouds.12 mph62%29.89 "HgN/A
8:00 AM79 °FScattered clouds.9 mph65%29.89 "HgN/A
7:00 AM79 °FScattered clouds.8 mph61%29.89 "HgN/A
6:00 AM77 °FScattered clouds.9 mph69%29.89 "HgN/A
5:00 AM73 °FScattered clouds.9 mph78%29.86 "HgN/A
4:00 AM73 °FPassing clouds.6 mph78%29.86 "HgN/A
3:00 AM75 °FPassing clouds.7 mph74%29.86 "HgN/A
2:00 AM75 °FPassing clouds.8 mph74%29.89 "HgN/A
1:00 AM75 °FPassing clouds.12 mph74%29.89 "HgN/A
12:00 AM75 °FPassing clouds.10 mph74%29.92 "HgN/A
11:00 PM
Fri, Jul 3
75 °FPassing clouds.12 mph74%29.92 "HgN/A
10:00 PM75 °FPassing clouds.10 mph74%29.92 "HgN/A
9:00 PM77 °FPassing clouds.12 mph69%29.92 "HgN/A
8:00 PM77 °FPassing clouds.10 mph69%29.92 "HgN/A
7:00 PM77 °FScattered clouds.16 mph69%29.92 "HgN/A
6:00 PM79 °FScattered clouds.17 mph65%29.92 "HgN/A
5:00 PM81 °FScattered clouds.16 mph58%29.92 "HgN/A
Weather by CustomWeather, © 2015

See weather overviewHow to use our weather pages